Flag for U.S.A. Weather past 2 weeks in Waterbury, Connecticut, U.S.A.

Now
10 °F

Passing clouds.


Feels Like: -3 °F
Forecast: 8 / 25 °F
Wind: 10 mph from North

Location: Oxford

Current Time: Mar 6, 2015 at 3:31:28 AM

Latest Report: Mar 6, 2015 at 2:55 AM


Visibility: 10 mi

Pressure: 30.35 "Hg

Humidity: 44%

Dew point: -8 °F

Location of WaterburyLocation

Historic Weather in Waterbury — Graph

°F

Waterbury temperature yesterday

Maximum temperature yesterday: 37 °F (at 12:15 AM)
Minimum temperature yesterday: 14 °F (at 11:55 PM)
Average temperature yesterday: 26 °F

Past Weeks' High & Low Weather Summary

 TemperatureHumidityPressure
High43 °F (Mar 4, 1:45 PM)100% (Feb 23, 12:50 PM)30.74 "Hg (Feb 23, 12:50 PM)
Low-8 °F (Feb 24, 3:55 AM)30% (Feb 28, 5:50 PM)29.61 "Hg (Feb 19, 3:35 AM)
Average18 °F54%30.14 "Hg
* Reported Feb 19 2:15 AM — Mar 6 2:35 AM, Waterbury, Weather by CustomWeather, © 2015

Note: Actual official high and low records may vary slightly from our data, if they occured in-between our weather recording intervals... More about our weather records

Advertising

Waterbury weather history for previous 24 hours

 ConditionsComfort  
Time TempWeatherWind HumidityBarometerVisibility
2:35 AM
Fri, Mar 6
10 °FPassing clouds.12 mph44%30.35 "Hg10 mi
2:15 AM10 °FPassing clouds.13 mph44%30.35 "Hg10 mi
1:55 AM10 °FPassing clouds.14 mph44%30.35 "Hg10 mi
1:35 AM10 °FPassing clouds.14 mph44%30.35 "Hg10 mi
1:15 AM12 °FPassing clouds.12 mph40%30.35 "Hg10 mi
12:55 AM12 °FPassing clouds.16 mph44%30.33 "Hg10 mi
12:35 AM12 °FPassing clouds.15 mph44%30.33 "Hg10 mi
12:15 AM14 °FPassing clouds.14 mph44%30.32 "Hg10 mi
11:55 PM
Thu, Mar 5
14 °FPassing clouds.15 mph48%30.32 "Hg10 mi
11:35 PM16 °FClear.16 mph45%30.31 "Hg10 mi
11:15 PM16 °FClear.14 mph48%30.29 "Hg10 mi
10:35 PM18 °FPassing clouds.13 mph45%30.29 "Hg10 mi
9:55 PM18 °FPassing clouds.13 mph45%30.28 "Hg10 mi
9:35 PM18 °FPassing clouds.13 mph45%30.26 "Hg10 mi
9:15 PM18 °FLow clouds.13 mph45%30.26 "Hg10 mi
8:55 PM18 °FOvercast.9 mph45%30.24 "Hg10 mi
7:55 PM19 °FOvercast.9 mph45%30.21 "Hg10 mi
6:50 PM19 °FOvercast.6 mph45%30.21 "Hg10 mi
5:55 PM19 °FMostly cloudy.7 mph45%30.14 "Hg10 mi
4:50 PM19 °FOvercast.No wind49%30.14 "Hg10 mi
3:52 PM19 °FMore clouds than sun.6 mph49%30.12 "Hg7 mi
2:52 PM21 °FLight snow. Ice fog.13 mph42%30.12 "Hg2 mi
1:52 PM21 °FOvercast.12 mph38%30.09 "Hg7 mi
12:52 PM21 °FOvercast.12 mph35%30.10 "Hg7 mi
11:52 AM21 °FOvercast.12 mph58%30.08 "Hg7 mi
10:50 AM21 °FLight snow. Ice fog.21 mph49%30.07 "Hg1 mi
9:55 AMN/ALight snow.7 mphN/AN/A4 mi
8:55 AM23 °FCold.14 mph63%30.09 "Hg1 mi
8:25 AM25 °FCold.16 mph54%30.06 "Hg1 mi
7:50 AM25 °FCold.14 mph59%30.03 "Hg3 mi
6:50 AM27 °FOvercast.16 mph69%29.99 "Hg1 mi
5:50 AM34 °FChilly.10 mph100%N/A1 mi
5:35 AM30 °FOvercast.13 mph69%29.97 "Hg1 mi
5:15 AM30 °FOvercast.15 mph69%29.96 "Hg2 mi
4:55 AM30 °FMostly cloudy.6 mph80%29.96 "Hg5 mi
4:35 AM32 °FOvercast.5 mph75%29.94 "Hg8 mi
4:15 AM32 °FOvercast.6 mph75%29.91 "Hg7 mi
3:55 AM32 °FOvercast.3 mph80%29.88 "Hg3 mi
3:35 AM32 °FMostly cloudy.8 mph75%29.91 "Hg2 mi
3:15 AM34 °FMostly cloudy.7 mph70%29.90 "Hg1 mi
Weather by CustomWeather, © 2015

See weather overviewHow to use our weather pages